Location: Pitton
(51.0667°N, 1.7000°W)
Time: 21:07:49
(UTC+00:00)

ADEOS Rocket - Pass Details

Date: 17 September 2019
Orbit: 859 x 1306 km, 98.7° (Epoch: 20 October)

Event Time Altitude Azimuth Distance (km) Brightness Sun altitude
Rises 21:02:17 0° 13° (NNE) 3,985 6.5 -24.7°
Reaches altitude 10° 21:04:48 10° 10° (N) 3,079 5.9 -25.0°
Maximum altitude 21:11:46 59° 293° (WNW) 1,408 4.0 -25.8°
Drops below altitude 10° 21:19:14 10° 217° (SW) 3,291 5.7 -26.7°
Sets 21:22:01 0° 213° (SSW) 4,276 6.2 -27.0°
